owner,sensor,date,latitude,longitude,vertical_datum,wind_speed,wind_to_direction,wind_speed_of_gust,qcFlag 
ADCP,ioos:station:wmo:42362:1,2013-02-01T00:30:00Z,27.7950,-90.6480,122.0,0.4,9.0,99.0,'11111222,11111222,11144222' 
ADCP,ioos:station:wmo:42362:1,2013-02-01T01:30:00Z,27.7950,-90.6480,122.0,1.0,17.0,99.0,'11111222,11111222,11144222' 
ADCP,ioos:station:wmo:42362:1,2013-02-01T02:30:00Z,27.7950,-90.6480,122.0,1.7,17.0,99.0,'11111222,11111222,11144222' 
ADCP,ioos:station:wmo:42362:1,2013-02-01T03:30:00Z,27.7950,-90.6480,122.0,1.9,29.0,99.0,'11111222,11111222,11144222' 
ADCP,ioos:station:wmo:42362:1,2013-02-01T04:30:00Z,27.7950,-90.6480,122.0,1.8,35.0,99.0,'11111222,11111222,11144222' 
ADCP,ioos:station:wmo:42362:1,2013-02-01T05:30:00Z,27.7950,-90.6480,122.0,1.7,23.0,99.0,'11111222,11111222,11144222' 
ADCP,ioos:station:wmo:42362:1,2013-02-01T06:30:00Z,27.7950,-90.6480,122.0,2.2,360.0,99.0,'11111222,11144222,11144222' 
ADCP,ioos:station:wmo:42362:1,2013-02-01T07:30:00Z,27.7950,-90.6480,122.0,3.7,354.0,99.0,'11111222,11111222,11144222' 
ADCP,ioos:station:wmo:42362:1,2013-02-01T08:30:00Z,27.7950,-90.6480,122.0,3.9,7.0,99.0,'11111222,11111222,11144222' 
ADCP,ioos:station:wmo:42362:1,2013-02-01T09:30:00Z,27.7950,-90.6480,122.0,4.3,13.0,99.0,'11111222,11111222,11144222' 
ADCP,ioos:station:wmo:42362:1,2013-02-01T10:30:00Z,27.7950,-90.6480,122.0,3.8,21.0,99.0,'11111222,11111222,11144222' 
ADCP,ioos:station:wmo:42362:1,2013-02-01T11:30:00Z,27.7950,-90.6480,122.0,3.9,26.0,99.0,'11111222,11111222,11144222' 
ADCP,ioos:station:wmo:42362:1,2013-02-01T12:30:00Z,27.7950,-90.6480,122.0,4.3,32.0,99.0,'11111222,11111222,11144222' 
ADCP,ioos:station:wmo:42362:1,2013-02-01T13:30:00Z,27.7950,-90.6480,122.0,4.6,38.0,99.0,'11111222,11111222,11144222' 
ADCP,ioos:station:wmo:42362:1,2013-02-01T14:30:00Z,27.7950,-90.6480,122.0,5.4,45.0,99.0,'11111222,11111222,11144222' 
ADCP,ioos:station:wmo:42362:1,2013-02-01T15:30:00Z,27.7950,-90.6480,122.0,6.0,54.0,99.0,'11111222,11111222,11144222' 
ADCP,ioos:station:wmo:42362:1,2013-02-01T16:30:00Z,27.7950,-90.6480,122.0,6.0,60.0,99.0,'11111222,11111222,11144222' 
ADCP,ioos:station:wmo:42362:1,2013-02-01T17:30:00Z,27.7950,-90.6480,122.0,7.3,59.0,99.0,'11111222,11111222,11144222' 
ADCP,ioos:station:wmo:42362:1,2013-02-01T18:30:00Z,27.7950,-90.6480,122.0,7.8,60.0,99.0,'11111222,11111222,11144222' 
ADCP,ioos:station:wmo:42362:1,2013-02-01T19:30:00Z,27.7950,-90.6480,122.0,8.4,68.0,99.0,'11111222,11111222,11144222' 
ADCP,ioos:station:wmo:42362:1,2013-02-01T20:30:00Z,27.7950,-90.6480,122.0,8.4,68.0,99.0,'11111222,11111222,11144222' 
ADCP,ioos:station:wmo:42362:1,2013-02-01T21:30:00Z,27.7950,-90.6480,122.0,8.0,74.0,99.0,'11111222,11111222,11144222' 
ADCP,ioos:station:wmo:42362:1,2013-02-01T22:30:00Z,27.7950,-90.6480,122.0,7.9,82.0,99.0,'11111222,11111222,11144222' 
ADCP,ioos:station:wmo:42362:1,2013-02-01T23:30:00Z,27.7950,-90.6480,122.0,8.5,98.0,99.0,'11111222,11111222,11144222' 
ADCP,ioos:station:wmo:42362:1,2013-02-02T00:30:00Z,27.7950,-90.6480,122.0,8.1,103.0,99.0,'11111222,11111222,11144222' 
ADCP,ioos:station:wmo:42362:1,2013-02-02T01:30:00Z,27.7950,-90.6480,122.0,7.4,104.0,99.0,'11111222,11111222,11144222' 
ADCP,ioos:station:wmo:42362:1,2013-02-02T02:30:00Z,27.7950,-90.6480,122.0,7.5,115.0,99.0,'11111222,11111222,11144222' 
ADCP,ioos:station:wmo:42362:1,2013-02-02T03:30:00Z,27.7950,-90.6480,122.0,7.4,124.0,99.0,'11111222,11111222,11144222' 
ADCP,ioos:station:wmo:42362:1,2013-02-02T04:30:00Z,27.7950,-90.6480,122.0,7.9,124.0,99.0,'11111222,11111222,11144222' 
ADCP,ioos:station:wmo:42362:1,2013-02-02T05:30:00Z,27.7950,-90.6480,122.0,7.1,122.0,99.0,'11111222,11111222,11144222' 
ADCP,ioos:station:wmo:42362:1,2013-02-02T06:30:00Z,27.7950,-90.6480,122.0,7.0,124.0,99.0,'11111222,11111222,11144222' 
ADCP,ioos:station:wmo:42362:1,2013-02-02T07:30:00Z,27.7950,-90.6480,122.0,6.9,123.0,99.0,'11111222,11111222,11144222' 
ADCP,ioos:station:wmo:42362:1,2013-02-02T08:30:00Z,27.7950,-90.6480,122.0,7.0,123.0,99.0,'11111222,11111222,11144222' 
ADCP,ioos:station:wmo:42362:1,2013-02-02T09:30:00Z,27.7950,-90.6480,122.0,6.1,129.0,99.0,'11111222,11111222,11144222' 
ADCP,ioos:station:wmo:42362:1,2013-02-02T10:30:00Z,27.7950,-90.6480,122.0,5.4,114.0,99.0,'11111222,11111222,11144222' 
ADCP,ioos:station:wmo:42362:1,2013-02-02T11:30:00Z,27.7950,-90.6480,122.0,4.9,101.0,99.0,'11111222,11111222,11144222' 
ADCP,ioos:station:wmo:42362:1,2013-02-02T12:30:00Z,27.7950,-90.6480,122.0,4.8,106.0,99.0,'11111222,11111222,11144222' 
ADCP,ioos:station:wmo:42362:1,2013-02-02T13:30:00Z,27.7950,-90.6480,122.0,6.3,103.0,99.0,'11111222,11111222,11144222' 
ADCP,ioos:station:wmo:42362:1,2013-02-02T14:30:00Z,27.7950,-90.6480,122.0,6.9,102.0,99.0,'11111222,11111222,11144222' 
ADCP,ioos:station:wmo:42362:1,2013-02-02T15:30:00Z,27.7950,-90.6480,122.0,7.6,104.0,99.0,'11111222,11111222,11144222' 
ADCP,ioos:station:wmo:42362:1,2013-02-02T16:30:00Z,27.7950,-90.6480,122.0,7.6,107.0,99.0,'11111222,11111222,11144222' 
ADCP,ioos:station:wmo:42362:1,2013-02-02T17:30:00Z,27.7950,-90.6480,122.0,8.3,103.0,99.0,'11111222,11111222,11144222' 
ADCP,ioos:station:wmo:42362:1,2013-02-02T18:30:00Z,27.7950,-90.6480,122.0,7.4,106.0,99.0,'11111222,11111222,11144222' 
ADCP,ioos:station:wmo:42362:1,2013-02-02T19:30:00Z,27.7950,-90.6480,122.0,6.8,111.0,99.0,'11111222,11111222,11144222' 
ADCP,ioos:station:wmo:42362:1,2013-02-02T20:30:00Z,27.7950,-90.6480,122.0,6.5,126.0,99.0,'11111222,11111222,11144222' 
ADCP,ioos:station:wmo:42362:1,2013-02-02T21:30:00Z,27.7950,-90.6480,122.0,5.7,136.0,99.0,'11111222,11111222,11144222' 
ADCP,ioos:station:wmo:42362:1,2013-02-02T22:30:00Z,27.7950,-90.6480,122.0,5.3,126.0,99.0,'11111222,11111222,11144222' 
ADCP,ioos:station:wmo:42362:1,2013-02-02T23:30:00Z,27.7950,-90.6480,122.0,5.5,116.0,99.0,'11111222,11111222,11144222' 
ADCP,ioos:station:wmo:42362:1,2013-02-03T00:30:00Z,27.7950,-90.6480,122.0,3.4,128.0,99.0,'11111222,11111222,11144222' 
ADCP,ioos:station:wmo:42362:1,2013-02-03T01:30:00Z,27.7950,-90.6480,122.0,4.5,149.0,99.0,'11111222,11111222,11144222' 
ADCP,ioos:station:wmo:42362:1,2013-02-03T02:30:00Z,27.7950,-90.6480,122.0,4.4,127.0,99.0,'11111222,11111222,11144222' 
ADCP,ioos:station:wmo:42362:1,2013-02-03T03:30:00Z,27.7950,-90.6480,122.0,2.5,92.0,99.0,'11111222,11111222,11144222' 
ADCP,ioos:station:wmo:42362:1,2013-02-03T04:30:00Z,27.7950,-90.6480,122.0,2.5,92.0,99.0,'11111222,11111222,11144222' 
ADCP,ioos:station:wmo:42362:1,2013-02-03T05:30:00Z,27.7950,-90.6480,122.0,2.2,131.0,99.0,'11111222,11111222,11144222' 
ADCP,ioos:station:wmo:42362:1,2013-02-03T06:30:00Z,27.7950,-90.6480,122.0,0.5,67.0,99.0,'11111222,11111222,11144222' 
ADCP,ioos:station:wmo:42362:1,2013-02-03T07:30:00Z,27.7950,-90.6480,122.0,0.2,339.0,99.0,'11111222,11111222,11144222' 
ADCP,ioos:station:wmo:42362:1,2013-02-03T08:30:00Z,27.7950,-90.6480,122.0,1.0,358.0,99.0,'11111222,11111222,11144222' 
ADCP,ioos:station:wmo:42362:1,2013-02-03T09:30:00Z,27.7950,-90.6480,122.0,2.3,19.0,99.0,'11111222,11111222,11144222' 
ADCP,ioos:station:wmo:42362:1,2013-02-03T10:30:00Z,27.7950,-90.6480,122.0,2.4,22.0,99.0,'11111222,11111222,11144222' 
ADCP,ioos:station:wmo:42362:1,2013-02-03T11:30:00Z,27.7950,-90.6480,122.0,3.1,4.0,99.0,'11111222,11111222,11144222' 
ADCP,ioos:station:wmo:42362:1,2013-02-03T12:30:00Z,27.7950,-90.6480,122.0,3.6,350.0,99.0,'11111222,11111222,11144222' 
ADCP,ioos:station:wmo:42362:1,2013-02-03T13:30:00Z,27.7950,-90.6480,122.0,4.0,354.0,99.0,'11111222,11111222,11144222' 
ADCP,ioos:station:wmo:42362:1,2013-02-03T14:30:00Z,27.7950,-90.6480,122.0,4.2,5.0,99.0,'11111222,11111222,11144222' 
ADCP,ioos:station:wmo:42362:1,2013-02-03T15:30:00Z,27.7950,-90.6480,122.0,5.8,9.0,99.0,'11111222,11111222,11144222' 
ADCP,ioos:station:wmo:42362:1,2013-02-03T16:30:00Z,27.7950,-90.6480,122.0,6.8,19.0,99.0,'11111222,11111222,11144222' 
ADCP,ioos:station:wmo:42362:1,2013-02-03T17:30:00Z,27.7950,-90.6480,122.0,5.9,24.0,99.0,'11111222,11111222,11144222' 
ADCP,ioos:station:wmo:42362:1,2013-02-03T18:30:00Z,27.7950,-90.6480,122.0,6.1,18.0,99.0,'11111222,11111222,11144222' 
ADCP,ioos:station:wmo:42362:1,2013-02-03T19:30:00Z,27.7950,-90.6480,122.0,5.8,14.0,99.0,'11111222,11111222,11144222' 
ADCP,ioos:station:wmo:42362:1,2013-02-03T20:30:00Z,27.7950,-90.6480,122.0,5.8,15.0,99.0,'11111222,11111222,11144222' 
ADCP,ioos:station:wmo:42362:1,2013-02-03T21:30:00Z,27.7950,-90.6480,122.0,5.6,22.0,99.0,'11111222,11111222,11144222' 
ADCP,ioos:station:wmo:42362:1,2013-02-03T22:30:00Z,27.7950,-90.6480,122.0,5.8,34.0,99.0,'11111222,11111222,11144222' 
ADCP,ioos:station:wmo:42362:1,2013-02-03T23:30:00Z,27.7950,-90.6480,122.0,5.7,42.0,99.0,'11111222,11111222,11144222' 
ADCP,ioos:station:wmo:42362:1,2013-02-04T00:30:00Z,27.7950,-90.6480,122.0,4.7,51.0,99.0,'11111222,11111222,11144222' 
ADCP,ioos:station:wmo:42362:1,2013-02-04T01:30:00Z,27.7950,-90.6480,122.0,4.8,57.0,99.0,'11111222,11111222,11144222' 
ADCP,ioos:station:wmo:42362:1,2013-02-04T02:30:00Z,27.7950,-90.6480,122.0,4.2,65.0,99.0,'11111222,11111222,11144222' 
ADCP,ioos:station:wmo:42362:1,2013-02-04T03:30:00Z,27.7950,-90.6480,122.0,3.4,77.0,99.0,'11111222,11111222,11144222' 
ADCP,ioos:station:wmo:42362:1,2013-02-04T04:30:00Z,27.7950,-90.6480,122.0,3.4,87.0,99.0,'11111222,11111222,11144222' 
ADCP,ioos:station:wmo:42362:1,2013-02-04T05:30:00Z,27.7950,-90.6480,122.0,3.1,85.0,99.0,'11111222,11111222,11144222' 
ADCP,ioos:station:wmo:42362:1,2013-02-04T06:30:00Z,27.7950,-90.6480,122.0,3.3,91.0,99.0,'11111222,11111222,11144222' 
ADCP,ioos:station:wmo:42362:1,2013-02-04T07:30:00Z,27.7950,-90.6480,122.0,4.0,103.0,99.0,'11111222,11111222,11144222' 
ADCP,ioos:station:wmo:42362:1,2013-02-04T08:30:00Z,27.7950,-90.6480,122.0,4.8,110.0,99.0,'11111222,11111222,11144222' 
ADCP,ioos:station:wmo:42362:1,2013-02-04T09:30:00Z,27.7950,-90.6480,122.0,5.0,119.0,99.0,'11111222,11111222,11144222' 
ADCP,ioos:station:wmo:42362:1,2013-02-04T10:30:00Z,27.7950,-90.6480,122.0,4.9,124.0,99.0,'11111222,11111222,11144222' 
ADCP,ioos:station:wmo:42362:1,2013-02-04T11:30:00Z,27.7950,-90.6480,122.0,5.4,127.0,99.0,'11111222,11111222,11144222' 
ADCP,ioos:station:wmo:42362:1,2013-02-04T12:30:00Z,27.7950,-90.6480,122.0,6.8,134.0,99.0,'11111222,11111222,11144222' 
ADCP,ioos:station:wmo:42362:1,2013-02-04T13:30:00Z,27.7950,-90.6480,122.0,6.7,140.0,99.0,'11111222,11111222,11144222' 
ADCP,ioos:station:wmo:42362:1,2013-02-04T14:30:00Z,27.7950,-90.6480,122.0,7.1,140.0,99.0,'11111222,11111222,11144222' 
ADCP,ioos:station:wmo:42362:1,2013-02-04T15:30:00Z,27.7950,-90.6480,122.0,7.7,138.0,99.0,'11111222,11111222,11144222' 
ADCP,ioos:station:wmo:42362:1,2013-02-04T16:30:00Z,27.7950,-90.6480,122.0,7.8,140.0,99.0,'11111222,11111222,11144222' 
ADCP,ioos:station:wmo:42362:1,2013-02-04T17:30:00Z,27.7950,-90.6480,122.0,8.4,141.0,99.0,'11111222,11111222,11144222' 
ADCP,ioos:station:wmo:42362:1,2013-02-04T18:30:00Z,27.7950,-90.6480,122.0,8.3,147.0,99.0,'11111222,11111222,11144222' 
ADCP,ioos:station:wmo:42362:1,2013-02-04T19:30:00Z,27.7950,-90.6480,122.0,9.0,149.0,99.0,'11111222,11111222,11144222' 
ADCP,ioos:station:wmo:42362:1,2013-02-04T20:30:00Z,27.7950,-90.6480,122.0,9.7,150.0,99.0,'11111222,11111222,11144222' 
ADCP,ioos:station:wmo:42362:1,2013-02-04T21:30:00Z,27.7950,-90.6480,122.0,10.9,156.0,99.0,'11111222,11111222,11144222' 
ADCP,ioos:station:wmo:42362:1,2013-02-04T22:30:00Z,27.7950,-90.6480,122.0,13.2,158.0,99.0,'11111222,11111222,11144222' 
ADCP,ioos:station:wmo:42362:1,2013-02-04T23:30:00Z,27.7950,-90.6480,122.0,12.5,160.0,99.0,'11111222,11111222,11144222' 
ADCP,ioos:station:wmo:42362:1,2013-02-05T00:30:00Z,27.7950,-90.6480,122.0,11.2,179.0,99.0,'11111222,11111222,11144222' 
ADCP,ioos:station:wmo:42362:1,2013-02-05T01:30:00Z,27.7950,-90.6480,122.0,10.0,175.0,99.0,'11111222,11111222,11144222' 
ADCP,ioos:station:wmo:42362:1,2013-02-05T02:30:00Z,27.7950,-90.6480,122.0,10.9,180.0,99.0,'11111222,11111222,11144222' 
ADCP,ioos:station:wmo:42362:1,2013-02-05T03:30:00Z,27.7950,-90.6480,122.0,12.7,185.0,99.0,'11111222,11111222,11144222' 
ADCP,ioos:station:wmo:42362:1,2013-02-05T04:30:00Z,27.7950,-90.6480,122.0,14.4,190.0,99.0,'11111222,11111222,11144222' 
ADCP,ioos:station:wmo:42362:1,2013-02-05T05:30:00Z,27.7950,-90.6480,122.0,13.7,196.0,99.0,'11111222,11111222,11144222' 
ADCP,ioos:station:wmo:42362:1,2013-02-05T06:30:00Z,27.7950,-90.6480,122.0,13.7,204.0,99.0,'11111222,11111222,11144222' 
ADCP,ioos:station:wmo:42362:1,2013-02-05T07:30:00Z,27.7950,-90.6480,122.0,13.3,208.0,99.0,'11111222,11111222,11144222' 
ADCP,ioos:station:wmo:42362:1,2013-02-05T08:30:00Z,27.7950,-90.6480,122.0,12.3,206.0,99.0,'11111222,11111222,11144222' 
ADCP,ioos:station:wmo:42362:1,2013-02-05T09:30:00Z,27.7950,-90.6480,122.0,12.1,206.0,99.0,'11111222,11111222,11144222' 
ADCP,ioos:station:wmo:42362:1,2013-02-05T10:30:00Z,27.7950,-90.6480,122.0,12.0,209.0,99.0,'11111222,11111222,11144222' 
ADCP,ioos:station:wmo:42362:1,2013-02-05T11:30:00Z,27.7950,-90.6480,122.0,12.7,211.0,99.0,'11111222,11111222,11144222' 
ADCP,ioos:station:wmo:42362:1,2013-02-05T12:30:00Z,27.7950,-90.6480,122.0,7.9,256.0,99.0,'11111222,11111222,11144222' 
ADCP,ioos:station:wmo:42362:1,2013-02-05T13:30:00Z,27.7950,-90.6480,122.0,1.4,30.0,99.0,'11111222,11111222,11144222' 
ADCP,ioos:station:wmo:42362:1,2013-02-05T14:30:00Z,27.7950,-90.6480,122.0,2.5,93.0,99.0,'11111222,11111222,11144222' 
ADCP,ioos:station:wmo:42362:1,2013-02-05T15:30:00Z,27.7950,-90.6480,122.0,3.7,107.0,99.0,'11111222,11111222,11144222' 
ADCP,ioos:station:wmo:42362:1,2013-02-05T16:30:00Z,27.7950,-90.6480,122.0,5.1,122.0,99.0,'11111222,11111222,11144222' 
ADCP,ioos:station:wmo:42362:1,2013-02-05T17:30:00Z,27.7950,-90.6480,122.0,6.2,131.0,99.0,'11111222,11111222,11144222' 
ADCP,ioos:station:wmo:42362:1,2013-02-05T18:30:00Z,27.7950,-90.6480,122.0,6.3,141.0,99.0,'11111222,11111222,11144222' 
ADCP,ioos:station:wmo:42362:1,2013-02-05T19:30:00Z,27.7950,-90.6480,122.0,4.3,156.0,99.0,'11111222,11111222,11144222' 
ADCP,ioos:station:wmo:42362:1,2013-02-05T20:30:00Z,27.7950,-90.6480,122.0,4.0,165.0,99.0,'11111222,11111222,11144222' 
ADCP,ioos:station:wmo:42362:1,2013-02-05T21:30:00Z,27.7950,-90.6480,122.0,3.8,170.0,99.0,'11111222,11111222,11144222' 
ADCP,ioos:station:wmo:42362:1,2013-02-05T22:30:00Z,27.7950,-90.6480,122.0,4.0,166.0,99.0,'11111222,11111222,11144222' 
ADCP,ioos:station:wmo:42362:1,2013-02-05T23:30:00Z,27.7950,-90.6480,122.0,3.9,187.0,99.0,'11111222,11111222,11144222' 
ADCP,ioos:station:wmo:42362:1,2013-02-06T00:30:00Z,27.7950,-90.6480,122.0,4.0,208.0,99.0,'11111222,11111222,11144222' 
ADCP,ioos:station:wmo:42362:1,2013-02-06T01:30:00Z,27.7950,-90.6480,122.0,3.5,221.0,99.0,'11111222,11111222,11144222' 
ADCP,ioos:station:wmo:42362:1,2013-02-06T02:30:00Z,27.7950,-90.6480,122.0,4.5,259.0,99.0,'11111222,11111222,11144222' 
ADCP,ioos:station:wmo:42362:1,2013-02-06T03:30:00Z,27.7950,-90.6480,122.0,1.2,273.0,99.0,'11111222,11111222,11144222' 
ADCP,ioos:station:wmo:42362:1,2013-02-06T04:30:00Z,27.7950,-90.6480,122.0,0.2,353.0,99.0,'11111222,11111222,11144222' 
ADCP,ioos:station:wmo:42362:1,2013-02-06T05:30:00Z,27.7950,-90.6480,122.0,3.1,4.0,99.0,'11111222,11111222,11144222' 
ADCP,ioos:station:wmo:42362:1,2013-02-06T06:30:00Z,27.7950,-90.6480,122.0,4.6,29.0,99.0,'11111222,11111222,11144222' 
ADCP,ioos:station:wmo:42362:1,2013-02-06T07:30:00Z,27.7950,-90.6480,122.0,4.8,51.0,99.0,'11111222,11111222,11144222' 
ADCP,ioos:station:wmo:42362:1,2013-02-06T08:30:00Z,27.7950,-90.6480,122.0,5.0,74.0,99.0,'11111222,11111222,11144222' 
ADCP,ioos:station:wmo:42362:1,2013-02-06T09:30:00Z,27.7950,-90.6480,122.0,4.9,74.0,99.0,'11111222,11111222,11144222' 
ADCP,ioos:station:wmo:42362:1,2013-02-06T10:30:00Z,27.7950,-90.6480,122.0,5.0,77.0,99.0,'11111222,11111222,11144222' 
ADCP,ioos:station:wmo:42362:1,2013-02-06T11:30:00Z,27.7950,-90.6480,122.0,5.2,89.0,99.0,'11111222,11111222,11144222' 
ADCP,ioos:station:wmo:42362:1,2013-02-06T12:30:00Z,27.7950,-90.6480,122.0,5.7,92.0,99.0,'11111222,11111222,11144222' 
ADCP,ioos:station:wmo:42362:1,2013-02-06T13:30:00Z,27.7950,-90.6480,122.0,5.2,85.0,99.0,'11111222,11111222,11144222' 
ADCP,ioos:station:wmo:42362:1,2013-02-06T14:30:00Z,27.7950,-90.6480,122.0,5.9,69.0,99.0,'11111222,11111222,11144222' 
ADCP,ioos:station:wmo:42362:1,2013-02-06T15:30:00Z,27.7950,-90.6480,122.0,7.2,67.0,99.0,'11111222,11111222,11144222' 
ADCP,ioos:station:wmo:42362:1,2013-02-06T16:30:00Z,27.7950,-90.6480,122.0,7.9,78.0,99.0,'11111222,11111222,11144222' 
ADCP,ioos:station:wmo:42362:1,2013-02-06T17:30:00Z,27.7950,-90.6480,122.0,8.4,98.0,99.0,'11111222,11111222,11144222' 
ADCP,ioos:station:wmo:42362:1,2013-02-06T18:30:00Z,27.7950,-90.6480,122.0,9.1,110.0,99.0,'11111222,11111222,11144222' 
ADCP,ioos:station:wmo:42362:1,2013-02-06T19:30:00Z,27.7950,-90.6480,122.0,8.5,112.0,99.0,'11111222,11111222,11144222' 
ADCP,ioos:station:wmo:42362:1,2013-02-06T20:30:00Z,27.7950,-90.6480,122.0,8.5,110.0,99.0,'11111222,11111222,11144222' 
ADCP,ioos:station:wmo:42362:1,2013-02-06T21:30:00Z,27.7950,-90.6480,122.0,9.8,110.0,99.0,'11111222,11111222,11144222' 
ADCP,ioos:station:wmo:42362:1,2013-02-06T22:30:00Z,27.7950,-90.6480,122.0,9.9,113.0,99.0,'11111222,11111222,11144222' 
ADCP,ioos:station:wmo:42362:1,2013-02-06T23:30:00Z,27.7950,-90.6480,122.0,9.6,110.0,99.0,'11111222,11111222,11144222' 
ADCP,ioos:station:wmo:42362:1,2013-02-07T00:30:00Z,27.7950,-90.6480,122.0,12.0,105.0,99.0,'11111222,11111222,11144222' 
ADCP,ioos:station:wmo:42362:1,2013-02-07T01:30:00Z,27.7950,-90.6480,122.0,18.8,163.0,99.0,'11111222,11111222,11144222' 
ADCP,ioos:station:wmo:42362:1,2013-02-07T02:30:00Z,27.7950,-90.6480,122.0,12.8,99.0,99.0,'11111222,11111222,11144222' 
ADCP,ioos:station:wmo:42362:1,2013-02-07T03:30:00Z,27.7950,-90.6480,122.0,13.5,101.0,99.0,'11111222,11111222,11144222' 
ADCP,ioos:station:wmo:42362:1,2013-02-07T04:30:00Z,27.7950,-90.6480,122.0,9.1,130.0,99.0,'11111222,11111222,11144222' 
ADCP,ioos:station:wmo:42362:1,2013-02-07T05:30:00Z,27.7950,-90.6480,122.0,11.5,144.0,99.0,'11111222,11111222,11144222' 
ADCP,ioos:station:wmo:42362:1,2013-02-07T06:30:00Z,27.7950,-90.6480,122.0,9.9,129.0,99.0,'11111222,11111222,11144222' 
ADCP,ioos:station:wmo:42362:1,2013-02-07T07:30:00Z,27.7950,-90.6480,122.0,9.1,149.0,99.0,'11111222,11111222,11144222' 
ADCP,ioos:station:wmo:42362:1,2013-02-07T08:30:00Z,27.7950,-90.6480,122.0,14.8,187.0,99.0,'11111222,11111222,11144222' 
ADCP,ioos:station:wmo:42362:1,2013-02-07T09:30:00Z,27.7950,-90.6480,122.0,17.2,209.0,99.0,'11111222,11111222,11144222' 
ADCP,ioos:station:wmo:42362:1,2013-02-07T10:30:00Z,27.7950,-90.6480,122.0,17.5,210.0,99.0,'11111222,11111222,11144222' 
ADCP,ioos:station:wmo:42362:1,2013-02-07T11:30:00Z,27.7950,-90.6480,122.0,16.1,210.0,99.0,'11111222,11111222,11144222' 
ADCP,ioos:station:wmo:42362:1,2013-02-07T12:30:00Z,27.7950,-90.6480,122.0,16.2,210.0,99.0,'11111222,11111222,11144222' 
ADCP,ioos:station:wmo:42362:1,2013-02-07T13:30:00Z,27.7950,-90.6480,122.0,13.4,276.0,99.0,'11111222,11111222,11144222' 
ADCP,ioos:station:wmo:42362:1,2013-02-07T14:30:00Z,27.7950,-90.6480,122.0,8.9,302.0,99.0,'11111222,11111222,11144222' 
ADCP,ioos:station:wmo:42362:1,2013-02-07T15:30:00Z,27.7950,-90.6480,122.0,6.8,290.0,99.0,'11111222,11111222,11144222' 
ADCP,ioos:station:wmo:42362:1,2013-02-07T16:30:00Z,27.7950,-90.6480,122.0,6.0,292.0,99.0,'11111222,11111222,11144222' 
ADCP,ioos:station:wmo:42362:1,2013-02-07T17:30:00Z,27.7950,-90.6480,122.0,5.3,304.0,99.0,'11111222,11111222,11144222' 
ADCP,ioos:station:wmo:42362:1,2013-02-07T18:30:00Z,27.7950,-90.6480,122.0,3.2,303.0,99.0,'11111222,11111222,11144222' 
ADCP,ioos:station:wmo:42362:1,2013-02-07T19:30:00Z,27.7950,-90.6480,122.0,2.1,326.0,99.0,'11111222,11111222,11144222' 
ADCP,ioos:station:wmo:42362:1,2013-02-07T20:30:00Z,27.7950,-90.6480,122.0,1.5,335.0,99.0,'11111222,11111222,11144222' 
ADCP,ioos:station:wmo:42362:1,2013-02-07T21:30:00Z,27.7950,-90.6480,122.0,99.0,-9999.0,99.0,'11144222,99999999,11144222' 
ADCP,ioos:station:wmo:42362:1,2013-02-07T22:30:00Z,27.7950,-90.6480,122.0,99.0,-9999.0,99.0,'11144222,99999999,11144222' 
ADCP,ioos:station:wmo:42362:1,2013-02-07T23:30:00Z,27.7950,-90.6480,122.0,99.0,-9999.0,99.0,'11144222,99999999,11144222' 
ADCP,ioos:station:wmo:42362:1,2013-02-08T00:30:00Z,27.7950,-90.6480,122.0,2.9,53.0,99.0,'11111222,11111222,11144222' 
ADCP,ioos:station:wmo:42362:1,2013-02-08T01:30:00Z,27.7950,-90.6480,122.0,2.5,63.0,99.0,'11111222,11111222,11144222' 
ADCP,ioos:station:wmo:42362:1,2013-02-08T02:30:00Z,27.7950,-90.6480,122.0,2.5,74.0,99.0,'11111222,11111222,11144222' 
ADCP,ioos:station:wmo:42362:1,2013-02-08T03:30:00Z,27.7950,-90.6480,122.0,2.5,79.0,99.0,'11111222,11111222,11144222' 
ADCP,ioos:station:wmo:42362:1,2013-02-08T04:30:00Z,27.7950,-90.6480,122.0,2.8,89.0,99.0,'11111222,11111222,11144222' 
ADCP,ioos:station:wmo:42362:1,2013-02-08T05:30:00Z,27.7950,-90.6480,122.0,3.1,93.0,99.0,'11111222,11111222,11144222' 
ADCP,ioos:station:wmo:42362:1,2013-02-08T06:30:00Z,27.7950,-90.6480,122.0,3.3,96.0,99.0,'11111222,11111222,11144222' 
ADCP,ioos:station:wmo:42362:1,2013-02-08T07:30:00Z,27.7950,-90.6480,122.0,3.3,120.0,99.0,'11111222,11111222,11144222' 
ADCP,ioos:station:wmo:42362:1,2013-02-08T08:30:00Z,27.7950,-90.6480,122.0,2.3,123.0,99.0,'11111222,11111222,11144222' 
ADCP,ioos:station:wmo:42362:1,2013-02-08T09:30:00Z,27.7950,-90.6480,122.0,1.6,78.0,99.0,'11111222,11111222,11144222' 
ADCP,ioos:station:wmo:42362:1,2013-02-08T10:30:00Z,27.7950,-90.6480,122.0,0.8,17.0,99.0,'11111222,11111222,11144222' 
ADCP,ioos:station:wmo:42362:1,2013-02-08T11:30:00Z,27.7950,-90.6480,122.0,1.1,9.0,99.0,'11111222,11111222,11144222' 
ADCP,ioos:station:wmo:42362:1,2013-02-08T12:30:00Z,27.7950,-90.6480,122.0,3.6,360.0,99.0,'11111222,11144222,11144222' 
ADCP,ioos:station:wmo:42362:1,2013-02-08T13:30:00Z,27.7950,-90.6480,122.0,4.3,14.0,99.0,'11111222,11111222,11144222' 
ADCP,ioos:station:wmo:42362:1,2013-02-08T14:30:00Z,27.7950,-90.6480,122.0,6.0,359.0,99.0,'11111222,11111222,11144222' 
ADCP,ioos:station:wmo:42362:1,2013-02-08T15:30:00Z,27.7950,-90.6480,122.0,5.3,336.0,99.0,'11111222,11111222,11144222' 
ADCP,ioos:station:wmo:42362:1,2013-02-08T16:30:00Z,27.7950,-90.6480,122.0,4.2,339.0,99.0,'11111222,11111222,11144222' 
ADCP,ioos:station:wmo:42362:1,2013-02-08T17:30:00Z,27.7950,-90.6480,122.0,4.5,346.0,99.0,'11111222,11111222,11144222' 
ADCP,ioos:station:wmo:42362:1,2013-02-08T18:30:00Z,27.7950,-90.6480,122.0,4.2,6.0,99.0,'11111222,11111222,11144222' 
ADCP,ioos:station:wmo:42362:1,2013-02-08T19:30:00Z,27.7950,-90.6480,122.0,3.9,357.0,99.0,'11111222,11111222,11144222' 
ADCP,ioos:station:wmo:42362:1,2013-02-08T20:30:00Z,27.7950,-90.6480,122.0,6.1,338.0,99.0,'11111222,11111222,11144222' 
ADCP,ioos:station:wmo:42362:1,2013-02-08T21:30:00Z,27.7950,-90.6480,122.0,7.5,339.0,99.0,'11111222,11111222,11144222' 
ADCP,ioos:station:wmo:42362:1,2013-02-08T22:30:00Z,27.7950,-90.6480,122.0,8.4,346.0,99.0,'11111222,11111222,11144222' 
ADCP,ioos:station:wmo:42362:1,2013-02-08T23:30:00Z,27.7950,-90.6480,122.0,7.1,351.0,99.0,'11111222,11111222,11144222' 
ADCP,ioos:station:wmo:42362:1,2013-02-09T00:30:00Z,27.7950,-90.6480,122.0,5.9,360.0,99.0,'11111222,11144222,11144222' 
ADCP,ioos:station:wmo:42362:1,2013-02-09T01:30:00Z,27.7950,-90.6480,122.0,3.7,8.0,99.0,'11111222,11111222,11144222' 
ADCP,ioos:station:wmo:42362:1,2013-02-09T02:30:00Z,27.7950,-90.6480,122.0,4.6,37.0,99.0,'11111222,11111222,11144222' 
ADCP,ioos:station:wmo:42362:1,2013-02-09T03:30:00Z,27.7950,-90.6480,122.0,4.9,55.0,99.0,'11111222,11111222,11144222' 
ADCP,ioos:station:wmo:42362:1,2013-02-09T04:30:00Z,27.7950,-90.6480,122.0,5.9,70.0,99.0,'11111222,11111222,11144222' 
ADCP,ioos:station:wmo:42362:1,2013-02-09T05:30:00Z,27.7950,-90.6480,122.0,6.4,69.0,99.0,'11111222,11111222,11144222' 
ADCP,ioos:station:wmo:42362:1,2013-02-09T06:30:00Z,27.7950,-90.6480,122.0,6.7,69.0,99.0,'11111222,11111222,11144222' 
ADCP,ioos:station:wmo:42362:1,2013-02-09T07:30:00Z,27.7950,-90.6480,122.0,6.7,71.0,99.0,'11111222,11111222,11144222' 
ADCP,ioos:station:wmo:42362:1,2013-02-09T08:30:00Z,27.7950,-90.6480,122.0,6.2,73.0,99.0,'11111222,11111222,11144222' 